Home > Weather > Loures > Past weeks

Flag for Portugal Weather for the Past 2 Weeks in Loures, Portugal

Now
63 °F

Partly sunny.


Feels Like: 63 °F
Forecast: 56 / 62 °F
Wind: 6 mph from North

Location: Lisbon Portela Airport

Current Time: May 5, 2016 at 7:35:05 PM

Latest Report: May 5, 2016 at 7:00 PM


Visibility: N/A

Pressure: 29.83 "Hg

Humidity: 83%

Dew Point: 57 °F

Location of LouresLocation

Historic Weather in Loures — Graph

°F

Loures Temperature Yesterday

Maximum temperature yesterday: 81 °F (at 4:30 PM)
Minimum temperature yesterday: 59 °F (at 6:00 AM)
Average temperature yesterday: 67 °F

High & Low Weather Summary for the Past Weeks

 TemperatureHumidityPressure
High86 °F (May 3, 4:30 PM)100% (Apr 22, 6:30 AM)30.24 "Hg (Apr 22, 6:30 AM)
Low52 °F (Apr 24, 5:30 AM)19% (May 3, 4:30 PM)29.80 "Hg (May 5, 5:30 PM)
Average62 °F68%30.03 "Hg
* Reported Apr 20 6:00 PM — May 5 6:30 PM, Loures, Weather by CustomWeather, © 2016

Note: Actual official high and low records may vary slightly from our data, if they occured in-between our weather recording intervals... More about our weather records

Advertising

Loures Weather History for the Previous 24 Hours

Scroll right to see more
 ConditionsComfort  
Time TempWeatherWind HumidityBarometerVisibility
6:30 PM
Thu, May 5
61 °FPartly sunny.6 mph88%29.83 "HgN/A
6:00 PM63 °FPartly sunny.5 mph83%29.83 "HgN/A
5:30 PM63 °FScattered clouds.6 mph83%29.80 "HgN/A
5:00 PM63 °FPartly sunny.5 mph88%29.83 "HgN/A
4:30 PM61 °FScattered clouds.5 mph94%29.83 "HgN/A
4:00 PM61 °FPartly sunny.6 mph88%29.83 "HgN/A
3:30 PM59 °FPartly sunny.6 mph94%29.83 "HgN/A
3:00 PM59 °FBroken clouds.3 mph94%29.86 "HgN/A
2:30 PM59 °FLight rain. Partly sunny.7 mph100%29.86 "Hg5 mi
2:00 PM59 °FLight rain. Broken clouds.3 mph94%29.86 "Hg4 mi
1:30 PM59 °FDrizzle. Partly sunny.1 mph94%29.89 "Hg4 mi
1:00 PM59 °FDrizzle. Partly sunny.5 mph94%29.89 "Hg4 mi
12:30 PM59 °FLight rain. Scattered clouds.1 mph94%29.89 "Hg4 mi
12:00 PM59 °FLight rain. Partly sunny.3 mph88%29.89 "Hg4 mi
11:30 AM59 °FRain. Partly sunny.5 mph88%29.89 "Hg4 mi
11:00 AM59 °FLight rain. Partly sunny.6 mph88%29.89 "Hg4 mi
10:30 AM59 °FPartly sunny.3 mph88%29.89 "HgN/A
10:00 AM59 °FLight rain. Partly sunny.7 mph88%29.89 "Hg5 mi
9:30 AM59 °FRain. Scattered clouds.9 mph94%29.89 "Hg3 mi
9:00 AM61 °FLight rain. Scattered clouds.9 mph94%29.89 "Hg4 mi
8:30 AM61 °FBroken clouds.9 mph100%29.89 "Hg4 mi
8:00 AM63 °FPassing clouds.5 mph88%29.89 "Hg6 mi
7:30 AM61 °FPassing clouds.5 mph94%29.86 "HgN/A
7:00 AM61 °FPassing clouds.3 mph94%29.86 "HgN/A
6:30 AM63 °FSprinkles. Passing clouds.2 mph88%29.86 "HgN/A
6:00 AM63 °FClear.2 mph83%29.86 "Hg10 mi
5:30 AM63 °FPassing clouds.6 mph83%29.86 "HgN/A
5:00 AM63 °FClear.2 mph88%29.89 "Hg10 mi
3:00 AM63 °FClear.2 mph83%29.89 "Hg10 mi
2:30 AM63 °FClear.5 mph83%29.89 "Hg10 mi
2:00 AM63 °FClear.5 mph88%29.92 "Hg10 mi
1:30 AM63 °FClear.6 mph88%29.92 "Hg10 mi
1:00 AM63 °FClear.3 mph83%29.92 "Hg10 mi
12:30 AM63 °FPassing clouds.5 mph83%29.92 "HgN/A
12:00 AM63 °FClear.7 mph83%29.92 "Hg10 mi
11:30 PM
Wed, May 4
63 °FClear.2 mph83%29.92 "Hg10 mi
11:00 PM63 °FClear.5 mph83%29.92 "Hg10 mi
10:30 PM63 °FClear.2 mph88%29.92 "Hg10 mi
10:00 PM63 °FPassing clouds.8 mph88%29.92 "HgN/A
9:30 PM63 °FPassing clouds.8 mph88%29.92 "HgN/A
9:00 PM64 °FPassing clouds.12 mph83%29.92 "HgN/A
8:30 PM64 °FPassing clouds.10 mph83%29.95 "HgN/A
8:00 PM64 °FPassing clouds.14 mph83%29.92 "HgN/A
7:30 PM66 °FPassing clouds.15 mph78%29.92 "HgN/A
7:00 PM68 °FPassing clouds.17 mph73%29.92 "HgN/A
Weather by CustomWeather, © 2016

See weather overviewHow to use our weather pages